Regional Weather Roundup
Issued by NWS

Home | Current Version | Previous Version | Text Only | Print | Product List | Glossary On
Versions: 1 2 3 4 5 6 7 8 9 10 11 12 13 14 15 16 17 18 19 20 21 22 23 24 25 26 27 28 29 30 31 32 33 34 35 36 37 38 39 40 41 42 43 44 45 46 47 48 49 50
000
ASUS43 KOAX 251410
RWRNE

WEATHER ROUNDUP FOR NEBRASKA
NATIONAL WEATHER SERVICE OMAHA NE
900 AM CDT THU AUG 25 2016

NOTES: SATELLITE DATA IS BEING USED TO AUGMENT CLOUD COVER ABOVE
       12000 FEET.
       "FAIR" INDICATES FEW OR NO CLOUDS BELOW 12,000 FEET WITH NO
       SIGNIFICANT WEATHER AND/OR OBSTRUCTIONS TO VISIBILITY.

  * THESE STATIONS DO NOT REPORT WEATHER SUCH AS RAIN...SNOW OR FOG.

NEZ001>004-019>022-054>056-251500-
NEBRASKA PANHANDLE

CITY           SKY/WX    TMP DP  RH WIND       PRES   REMARKS
SCOTTSBLUFF    PTSUNNY   55  46  71 NE8       30.30R
ALLIANCE       CLOUDY    54  45  71 NE10      30.28R
CHADRON        LGT RAIN  53  46  77 NE3       30.30R
KIMBALL        MOSUNNY   51  49  92 N7        30.30R
SIDNEY         SUNNY     53  45  74 N9        30.29R
$$

NEZ057>060-069>072-079>082-251500-
SOUTHWEST NEBRASKA

CITY           SKY/WX    TMP DP  RH WIND       PRES   REMARKS
NORTH PLATTE   MOSUNNY   59  49  69 NE16G23   30.22R
IMPERIAL       MOSUNNY   57  47  69 N13       30.24R
LEXINGTON      PTSUNNY   59  55  85 W5        30.20R
MCCOOK         CLOUDY    63  52  67 CALM      30.20R
OGALLALA       SUNNY     59  46  61 NE10      30.26R
$$

NEZ005>010-023>029-035>040-094-251500-
NORTH CENTRAL NEBRASKA

CITY           SKY/WX    TMP DP  RH WIND       PRES   REMARKS
VALENTINE      PTSUNNY   56  45  66 NW6       30.26R
AINSWORTH      PTSUNNY   56  49  75 N12       30.24R
BROKEN BOW     CLOUDY    58  50  75 N13       30.20R
O`NEILL        CLOUDY    59  51  75 N7        30.21R
ORD            CLOUDY    60  50  69 N9        30.17R
THEDFORD       CLOUDY    57  48  71 N9        30.26R
$$

NEZ041-046>049-061>064-073>077-083>087-251500-
SOUTH CENTRAL NEBRASKA

CITY           SKY/WX    TMP DP  RH WIND       PRES   REMARKS
GRAND ISLAND   CLOUDY    61  56  83 N7        30.17R
AURORA         CLOUDY    60  59  96 NW10      30.16R
HASTINGS       CLOUDY    61  57  87 NW6       30.17R
HEBRON         DRIZZLE   61  58  90 E7        30.10F
HOLDREGE       CLOUDY    60  55  82 CALM      30.19R
KEARNEY *      CLOUDY    63  55  77 NW7       30.18R
YORK           CLOUDY    59  57  94 CALM      30.14S
$$

NEZ011>018-030>034-042>045-251500-
NORTHEAST NEBRASKA

CITY           SKY/WX    TMP DP  RH WIND       PRES   REMARKS
NORFOLK        CLOUDY    59  55  87 NW8       30.16R
ALBION         CLOUDY    59  54  83 N6        30.17R
BLAIR          CLOUDY    63  59  88 CALM      30.13R
FREMONT        CLOUDY    59  58  96 CALM      30.14R
TEKAMAH        CLOUDY    59  57  93 CALM      30.12R
WAYNE          CLOUDY    60  57  89 N6        30.16R
$$

NEZ050>053-065>068-078-088>093-251500-
SOUTHEAST NEBRASKA

CITY           SKY/WX    TMP DP  RH WIND       PRES   REMARKS
LINCOLN        CLOUDY    61  57  87 CALM      30.14R
OMAHA EPPLEY   CLOUDY    61  57  87 N6        30.13R
BEATRICE       LGT RAIN  61  58  92 NE5       30.11F
FALLS CITY     HVY RAIN  65  64  97 N8        30.11R FOG
NEBRASKA CITY  RAIN      62  62 100 N3        30.15R
PLATTSMOUTH    CLOUDY    61  60  98 CALM      30.14R
$$

NEZ044-045-051>053-067-251500-
OMAHA AREA

CITY           SKY/WX    TMP DP  RH WIND       PRES   REMARKS
OMAHA EPPLEY   CLOUDY    61  57  87 N6        30.13R
BLAIR          CLOUDY    63  59  88 CALM      30.13R
FREMONT        CLOUDY    59  58  96 CALM      30.14R
MILLARD        CLOUDY    62  59  90 CALM      30.13R
OFFUTT AFB     CLOUDY    62  62  99 S3        30.13R
PLATTSMOUTH    CLOUDY    61  60  98 CALM      30.14R
WAHOO          FAIR      60  58  92 CALM      30.14R
$$




USA.gov is the U.S. government's official web portal to all federal, state and local government web resources and services.